Weather Roundup
Issued by NWS Chicago, IL

Home | Current Version | Previous Version | Graphics & Text | Print | Product List | Glossary On
Versions: 1 2 3 4 5 6 7 8 9 10 11 12 13 14 15 16 17 18 19 20 21 22 23 24 25 26 27 28 29 30 31 32 33 34 35 36 37 38 39 40 41 42 43 44 45 46 47 48 49 50
000
NZUS59 KLOT 292212
HRRLOT

CHICAGO AREA WEATHER ROUNDUP
NATIONAL WEATHER SERVICE CHICAGO/ROMEOVILLE IL
500 PM CDT SUN MAR 29 2015

NOTE: "FAIR" INDICATES FEW OR NO CLOUDS BELOW 12,000 FEET WITH NO
SIGNIFICANT WEATHER AND/OR OBSTRUCTIONS TO VISIBILITY.

* THESE STATIONS ARE NOT UNDER NWS QUALITY CONTROL. THEY ALSO MAY NOT
  REPORT WEATHER SUCH AS PRECIPITATION OR FOG.

ILZ005-006-012>014-019>023-292300-
NORTHEAST ILLINOIS

CITY           SKY/WX    TMP DP  RH WIND       PRES   REMARKS
OHARE          MOSUNNY   45  33  63 SW18G30   29.76F
MIDWAY         PTSUNNY   46  34  62 SW23G29   29.80F
AURORA         CLOUDY    48  33  56 SW21G29   29.79F
LANSING*       CLOUDY    44  32  63 SW20G26   29.84S
JOLIET*        MOSUNNY   49  35  57 SW17G28   29.82F
WAUKEGAN       CLOUDY    42  33  70 SW21G32   29.72F
DUPAGE AIRPORT CLOUDY    46  35  65 SW21G31   29.78F
WHEELING       PTSUNNY   45  32  60 SW18G24   29.77F
KANKAKEE*      MOSUNNY   46  37  71 SW18G26   29.86F
MORRIS*        MOSUNNY   49  34  57 SW23      29.81F
LEWIS AIRPORT* PTSUNNY   47  34  59 SW23      29.81F
NORTHERLY IS     N/A     44  31  60 S9          N/A
$$

WIZ051-052-058>065-066-070>072-292300-
SOUTHEAST WISCONSIN

CITY           SKY/WX    TMP DP  RH WIND       PRES   REMARKS
MILWAUKEE      PTSUNNY   41  31  67 SW24G35   29.67F
KENOSHA*       CLOUDY    41  33  73 SW22G29   29.70F
RACINE*        CLOUDY    42  32  67 SW20G32   29.70F
BURLINGTON     CLOUDY    39  33  80 SW22G29   29.69F
WAUKESHA       CLOUDY    37  34  87 S17G35    29.67F
WEST BEND      DRIZZLE   36  34  93 SW15G21   29.63S
$$

INZ001>003-010>013-019-020-292300-
NORTHWEST INDIANA

CITY           SKY/WX    TMP DP  RH WIND       PRES   REMARKS
GARY*          PTSUNNY   45  27  49 SW14G26   29.83F
MICHIGAN CITY* NOT AVBL
RENSSELAER*    NOT AVBL
VALPARAISO     CLOUDY    40  31  70 SW20G26   29.84F
$$

LMZ740>746-292300-
SOUTHERN LAKE MICHIGAN

STATION/POSITION TIME  SKY/WX   TEMP WIND        PRES    VSBY
                                AIR  DIR/SP/G
                 (UTC)          (F)  (DEG/KT/KT) (MB)    (MI)
HARRISON CRIB    2100            40  210/ 27/ 35   N/A
BURNHAM HARBOR   2200            45  200/ 10/ 20   N/A
CALUMET HARBOR   2100            41  190/ 17/ 25 1008.8F
BURNS HARBOR     2203            42  210/ 20     1010.5F
MICHIGAN CITY    2100            37  170/ 20/ 26   N/A
$$

ABBREVIATIONS USED IN REMARKS
   TC - TEMPERATURE IN CELSIUS
  WCI - WIND CHILL INDEX
   HX - HEAT INDEX
  VSB - VISIBILITY
$$



USA.gov is the U.S. government's official web portal to all federal, state and local government web resources and services.